Time,TemperatureF,DewpointF,PressureIn,WindDirection,WindDirectionDegrees,WindSpeedMPH,WindSpeedGustMPH,Humidity,HourlyPrecipIn,Conditions,Clouds,dailyrainin,SoftwareType,DateUTC
2013-11-04 00:02:00,28.3,18.0,30.45,NNE,19,2.0,2.0,65,0.00,,,0.00,weatherlink.com 1.10,2013-11-04 05:02:00,
2013-11-04 00:17:00,27.9,18.0,30.47,NNE,19,0.0,1.0,67,0.00,,,0.00,weatherlink.com 1.10,2013-11-04 05:17:00,
2013-11-04 00:32:00,27.5,18.0,30.47,NNE,19,0.0,2.0,67,0.00,,,0.00,weatherlink.com 1.10,2013-11-04 05:32:00,
2013-11-04 00:47:00,27.6,18.0,30.48,ENE,66,0.0,3.0,67,0.00,,,0.00,weatherlink.com 1.10,2013-11-04 05:47:00,
2013-11-04 01:02:00,27.2,18.0,30.48,ENE,66,0.0,1.0,69,0.00,,,0.00,weatherlink.com 1.10,2013-11-04 06:02:00,
2013-11-04 01:17:00,26.7,18.0,30.49,ENE,66,0.0,2.0,70,0.00,,,0.00,weatherlink.com 1.10,2013-11-04 06:17:00,
2013-11-04 01:33:00,26.7,18.0,30.49,ESE,104,2.0,3.0,70,0.00,,,0.00,weatherlink.com 1.10,2013-11-04 06:33:00,
2013-11-04 01:48:00,27.4,18.0,30.50,NE,36,4.0,5.0,69,0.00,,,0.00,weatherlink.com 1.10,2013-11-04 06:48:00,
2013-11-04 02:03:00,27.6,18.0,30.50,NNE,33,2.0,4.0,68,0.00,,,0.00,weatherlink.com 1.10,2013-11-04 07:03:00,
2013-11-04 02:18:00,27.3,18.0,30.50,NNE,33,1.0,3.0,69,0.00,,,0.00,weatherlink.com 1.10,2013-11-04 07:18:00,
2013-11-04 02:33:00,27.0,18.0,30.51,NNE,33,0.0,2.0,70,0.00,,,0.00,weatherlink.com 1.10,2013-11-04 07:33:00,
2013-11-04 02:48:00,26.7,18.0,30.51,NNE,33,1.0,0.0,71,0.00,,,0.00,weatherlink.com 1.10,2013-11-04 07:48:00,
2013-11-04 03:03:00,26.2,18.0,30.51,NNE,33,0.0,0.0,71,0.00,,,0.00,weatherlink.com 1.10,2013-11-04 08:03:00,
2013-11-04 03:18:00,25.8,18.0,30.52,NNE,33,0.0,2.0,73,0.00,,,0.00,weatherlink.com 1.10,2013-11-04 08:18:00,
2013-11-04 03:33:00,25.7,18.0,30.52,NNE,33,0.0,4.0,74,0.00,,,0.00,weatherlink.com 1.10,2013-11-04 08:33:00,
2013-11-04 03:48:00,25.9,18.0,30.53,NNE,33,2.0,6.0,73,0.00,,,0.00,weatherlink.com 1.10,2013-11-04 08:48:00,
2013-11-04 04:03:00,25.9,19.0,30.53,NNE,33,1.0,4.0,74,0.00,,,0.00,weatherlink.com 1.10,2013-11-04 09:03:00,
2013-11-04 04:18:00,26.0,18.0,30.54,NNE,32,1.0,4.0,73,0.00,,,0.00,weatherlink.com 1.10,2013-11-04 09:18:00,
2013-11-04 04:33:00,25.8,18.0,30.54,NNE,32,0.0,2.0,73,0.00,,,0.00,weatherlink.com 1.10,2013-11-04 09:33:00,
2013-11-04 04:48:00,25.5,18.0,30.55,NNE,32,0.0,1.0,74,0.00,,,0.00,weatherlink.com 1.10,2013-11-04 09:48:00,
2013-11-04 05:03:00,25.0,18.0,30.56,NNE,32,0.0,0.0,75,0.00,,,0.00,weatherlink.com 1.10,2013-11-04 10:03:00,
2013-11-04 05:18:00,24.6,18.0,30.57,NNE,32,0.0,0.0,76,0.00,,,0.00,weatherlink.com 1.10,2013-11-04 10:18:00,
2013-11-04 05:33:00,24.2,18.0,30.57,NNE,32,0.0,0.0,77,0.00,,,0.00,weatherlink.com 1.10,2013-11-04 10:33:00,
2013-11-04 05:48:00,23.9,18.0,30.56,NNE,32,0.0,2.0,78,0.00,,,0.00,weatherlink.com 1.10,2013-11-04 10:48:00,
2013-11-04 06:03:00,24.1,18.0,30.57,NNE,32,1.0,5.0,78,0.00,,,0.00,weatherlink.com 1.10,2013-11-04 11:03:00,
2013-11-04 06:18:00,24.2,18.0,30.59,NNE,32,1.0,4.0,78,0.00,,,0.00,weatherlink.com 1.10,2013-11-04 11:18:00,
2013-11-04 06:33:00,24.1,18.0,30.60,NNE,32,2.0,4.0,78,0.00,,,0.00,weatherlink.com 1.10,2013-11-04 11:33:00,
2013-11-04 06:48:00,24.6,18.0,30.60,NNE,32,0.0,4.0,77,0.00,,,0.00,weatherlink.com 1.10,2013-11-04 11:48:00,
2013-11-04 07:03:00,24.6,18.0,30.60,NNE,32,0.0,3.0,76,0.00,,,0.00,weatherlink.com 1.10,2013-11-04 12:03:00,
2013-11-04 07:18:00,24.6,18.0,30.60,NNE,32,4.0,4.0,77,0.00,,,0.00,weatherlink.com 1.10,2013-11-04 12:18:00,
2013-11-04 07:33:00,25.4,19.0,30.61,NNE,32,1.0,4.0,76,0.00,,,0.00,weatherlink.com 1.10,2013-11-04 12:33:00,
2013-11-04 07:48:00,26.1,20.0,30.61,NNE,32,2.0,4.0,76,0.00,,,0.00,weatherlink.com 1.10,2013-11-04 12:48:00,
2013-11-04 08:03:00,27.5,20.0,30.62,NNE,32,1.0,5.0,74,0.00,,,0.00,weatherlink.com 1.10,2013-11-04 13:03:00,
2013-11-04 08:18:00,28.9,21.0,30.62,ENE,65,5.0,9.0,72,0.00,,,0.00,weatherlink.com 1.10,2013-11-04 13:18:00,
2013-11-04 08:34:00,29.9,21.0,30.63,NNE,19,2.0,8.0,69,0.00,,,0.00,weatherlink.com 1.10,2013-11-04 13:34:00,
2013-11-04 08:49:00,30.8,21.0,30.64,NE,51,7.0,9.0,67,0.00,,,0.00,weatherlink.com 1.10,2013-11-04 13:49:00,
2013-11-04 09:04:00,32.2,21.0,30.64,North,5,6.0,8.0,64,0.00,,,0.00,weatherlink.com 1.10,2013-11-04 14:04:00,
2013-11-04 09:19:00,33.1,21.0,30.64,NE,44,4.0,8.0,62,0.00,,,0.00,weatherlink.com 1.10,2013-11-04 14:19:00,
2013-11-04 09:34:00,33.7,21.0,30.64,NE,55,4.0,9.0,60,0.00,,,0.00,weatherlink.com 1.10,2013-11-04 14:34:00,
2013-11-04 09:49:00,34.5,21.0,30.63,North,5,6.0,10.0,57,0.00,,,0.00,weatherlink.com 1.10,2013-11-04 14:49:00,
2013-11-04 10:04:00,35.3,20.0,30.63,ENE,67,5.0,11.0,53,0.00,,,0.00,weatherlink.com 1.10,2013-11-04 15:04:00,
2013-11-04 10:19:00,35.9,20.0,30.64,North,355,4.0,12.0,52,0.00,,,0.00,weatherlink.com 1.10,2013-11-04 15:19:00,
2013-11-04 10:34:00,36.8,20.0,30.63,NNE,32,2.0,9.0,50,0.00,,,0.00,weatherlink.com 1.10,2013-11-04 15:34:00,
2013-11-04 10:49:00,37.1,19.0,30.63,ENE,65,2.0,11.0,49,0.00,,,0.00,weatherlink.com 1.10,2013-11-04 15:49:00,
2013-11-04 11:04:00,37.9,21.0,30.62,North,355,4.0,6.0,50,0.00,,,0.00,weatherlink.com 1.10,2013-11-04 16:04:00,
2013-11-04 11:19:00,38.4,20.0,30.61,NE,34,6.0,8.0,48,0.00,,,0.00,weatherlink.com 1.10,2013-11-04 16:19:00,
2013-11-04 11:34:00,38.7,20.0,30.61,NNE,17,2.0,7.0,47,0.00,,,0.00,weatherlink.com 1.10,2013-11-04 16:34:00,
2013-11-04 11:49:00,39.5,20.0,30.60,North,350,4.0,7.0,45,0.00,,,0.00,weatherlink.com 1.10,2013-11-04 16:49:00,
2013-11-04 12:04:00,39.8,19.0,30.60,North,360,3.0,8.0,44,0.00,,,0.00,weatherlink.com 1.10,2013-11-04 17:04:00,
2013-11-04 12:19:00,40.3,21.0,30.59,NW,324,4.0,9.0,47,0.00,,,0.00,weatherlink.com 1.10,2013-11-04 17:19:00,
2013-11-04 12:34:00,41.0,20.0,30.59,North,355,3.0,9.0,44,0.00,,,0.00,weatherlink.com 1.10,2013-11-04 17:34:00,
2013-11-04 12:49:00,40.9,20.0,30.59,NE,55,2.0,6.0,43,0.00,,,0.00,weatherlink.com 1.10,2013-11-04 17:49:00,
2013-11-04 13:04:00,41.6,20.0,30.59,NW,325,3.0,7.0,43,0.00,,,0.00,weatherlink.com 1.10,2013-11-04 18:04:00,
2013-11-04 13:20:00,42.1,21.0,30.59,WNW,286,1.0,8.0,43,0.00,,,0.00,weatherlink.com 1.10,2013-11-04 18:20:00,
2013-11-04 13:35:00,42.1,21.0,30.59,NNE,31,3.0,7.0,43,0.00,,,0.00,weatherlink.com 1.10,2013-11-04 18:35:00,
2013-11-04 13:50:00,43.0,21.0,30.58,NW,321,0.0,8.0,42,0.00,,,0.00,weatherlink.com 1.10,2013-11-04 18:50:00,
2013-11-04 14:05:00,42.5,20.0,30.58,NW,320,2.0,8.0,41,0.00,,,0.00,weatherlink.com 1.10,2013-11-04 19:05:00,
2013-11-04 14:20:00,42.3,21.0,30.58,NE,46,0.0,7.0,42,0.00,,,0.00,weatherlink.com 1.10,2013-11-04 19:20:00,
2013-11-04 14:35:00,42.8,20.0,30.58,NE,51,1.0,7.0,40,0.00,,,0.00,weatherlink.com 1.10,2013-11-04 19:35:00,
2013-11-04 14:50:00,42.9,20.0,30.58,SE,140,1.0,7.0,40,0.00,,,0.00,weatherlink.com 1.10,2013-11-04 19:50:00,
2013-11-04 15:05:00,43.2,20.0,30.58,NE,42,5.0,8.0,39,0.00,,,0.00,weatherlink.com 1.10,2013-11-04 20:05:00,
2013-11-04 15:20:00,43.1,20.0,30.58,NNE,28,2.0,6.0,40,0.00,,,0.00,weatherlink.com 1.10,2013-11-04 20:20:00,
2013-11-04 15:35:00,42.8,20.0,30.58,NE,51,1.0,6.0,40,0.00,,,0.00,weatherlink.com 1.10,2013-11-04 20:35:00,
2013-11-04 15:50:00,42.3,21.0,30.59,North,355,5.0,6.0,42,0.00,,,0.00,weatherlink.com 1.10,2013-11-04 20:50:00,
2013-11-04 16:05:00,41.7,21.0,30.58,NNE,24,0.0,4.0,43,0.00,,,0.00,weatherlink.com 1.10,2013-11-04 21:05:00,
2013-11-04 16:20:00,41.3,21.0,30.59,NNE,24,0.0,4.0,44,0.00,,,0.00,weatherlink.com 1.10,2013-11-04 21:20:00,
2013-11-04 16:35:00,40.3,20.0,30.59,NNE,24,0.0,3.0,45,0.00,,,0.00,weatherlink.com 1.10,2013-11-04 21:35:00,
2013-11-04 16:50:00,39.1,20.0,30.60,NNE,24,0.0,0.0,47,0.00,,,0.00,weatherlink.com 1.10,2013-11-04 21:50:00,
2013-11-04 17:05:00,37.7,20.0,30.61,NNE,24,0.0,1.0,49,0.00,,,0.00,weatherlink.com 1.10,2013-11-04 22:05:00,
2013-11-04 17:20:00,36.5,20.0,30.61,NNE,24,0.0,1.0,52,0.00,,,0.00,weatherlink.com 1.10,2013-11-04 22:20:00,
2013-11-04 17:35:00,35.5,20.0,30.61,NNE,24,2.0,2.0,54,0.00,,,0.00,weatherlink.com 1.10,2013-11-04 22:35:00,
2013-11-04 17:50:00,34.7,20.0,30.62,NNE,24,2.0,2.0,55,0.00,,,0.00,weatherlink.com 1.10,2013-11-04 22:50:00,
2013-11-04 18:05:00,34.4,20.0,30.63,NNE,24,0.0,2.0,55,0.00,,,0.00,weatherlink.com 1.10,2013-11-04 23:05:00,
2013-11-04 18:20:00,33.8,20.0,30.63,NNE,24,1.0,3.0,57,0.00,,,0.00,weatherlink.com 1.10,2013-11-04 23:20:00,
2013-11-04 18:35:00,33.4,20.0,30.63,ENE,76,3.0,3.0,59,0.00,,,0.00,weatherlink.com 1.10,2013-11-04 23:35:00,
2013-11-04 18:50:00,33.4,20.0,30.63,ENE,76,0.0,2.0,59,0.00,,,0.00,weatherlink.com 1.10,2013-11-04 23:50:00,
2013-11-04 19:05:00,33.3,21.0,30.63,East,96,1.0,5.0,60,0.00,,,0.00,weatherlink.com 1.10,2013-11-05 00:05:00,
2013-11-04 19:20:00,33.5,21.0,30.62,ESE,103,3.0,6.0,60,0.00,,,0.00,weatherlink.com 1.10,2013-11-05 00:20:00,
2013-11-04 19:35:00,33.9,21.0,30.63,ESE,108,3.0,5.0,60,0.00,,,0.00,weatherlink.com 1.10,2013-11-05 00:35:00,
2013-11-04 19:50:00,33.6,21.0,30.63,ESE,108,1.0,3.0,61,0.00,,,0.00,weatherlink.com 1.10,2013-11-05 00:50:00,
2013-11-04 20:05:00,33.1,21.0,30.64,ESE,108,2.0,3.0,61,0.00,,,0.00,weatherlink.com 1.10,2013-11-05 01:05:00,
2013-11-04 20:20:00,32.8,20.0,30.64,ESE,108,0.0,0.0,59,0.00,,,0.00,weatherlink.com 1.10,2013-11-05 01:20:00,
2013-11-04 20:35:00,32.6,19.0,30.64,ESE,108,0.0,2.0,57,0.00,,,0.00,weatherlink.com 1.10,2013-11-05 01:35:00,
2013-11-04 20:50:00,32.4,19.0,30.64,ESE,108,0.0,1.0,58,0.00,,,0.00,weatherlink.com 1.10,2013-11-05 01:50:00,
2013-11-04 21:05:00,32.3,18.0,30.65,ESE,108,0.0,2.0,56,0.00,,,0.00,weatherlink.com 1.10,2013-11-05 02:05:00,
2013-11-04 21:20:00,32.3,18.0,30.65,SSE,160,1.0,3.0,57,0.00,,,0.00,weatherlink.com 1.10,2013-11-05 02:20:00,
2013-11-04 21:35:00,32.5,19.0,30.65,SSE,160,0.0,3.0,57,0.00,,,0.00,weatherlink.com 1.10,2013-11-05 02:35:00,
2013-11-04 21:50:00,32.9,18.0,30.65,ESE,109,1.0,3.0,55,0.00,,,0.00,weatherlink.com 1.10,2013-11-05 02:50:00,
2013-11-04 22:05:00,33.7,18.0,30.65,SSE,157,0.0,3.0,53,0.00,,,0.00,weatherlink.com 1.10,2013-11-05 03:05:00,
2013-11-04 22:20:00,33.9,20.0,30.66,SSE,157,0.0,2.0,56,0.00,,,0.00,weatherlink.com 1.10,2013-11-05 03:20:00,
2013-11-04 22:35:00,33.9,19.0,30.66,SSE,157,0.0,1.0,54,0.00,,,0.00,weatherlink.com 1.10,2013-11-05 03:35:00,
2013-11-04 22:50:00,33.8,19.0,30.65,SSE,157,0.0,2.0,56,0.00,,,0.00,weatherlink.com 1.10,2013-11-05 03:50:00,
2013-11-04 23:05:00,34.3,19.0,30.66,SSE,151,0.0,4.0,53,0.00,,,0.00,weatherlink.com 1.10,2013-11-05 04:05:00,
2013-11-04 23:20:00,34.9,19.0,30.66,SE,134,0.0,5.0,52,0.00,,,0.00,weatherlink.com 1.10,2013-11-05 04:20:00,
2013-11-04 23:36:00,35.3,18.0,30.66,SE,136,0.0,3.0,50,0.00,,,0.00,weatherlink.com 1.10,2013-11-05 04:36:00,
2013-11-04 23:51:00,35.3,19.0,30.66,SE,136,1.0,2.0,52,0.00,,,0.00,weatherlink.com 1.10,2013-11-05 04:51:00,